• In Uzbekistan
  • List of Countries
  • For 7 days
  • Water Temperature
  • Satellite Maps
  • Weather Map
  • Weather Widgets
  • user-avatar
    Login

    Hourly Weather Ganja

    Today, 22 July, Saturday

    Time Temperature Precipitation Wind Pressure Humidity
    00:00 +28°C° 0 mm 3 mps 724 mmHg 32%
    01:00 +27°C° 0 mm 3 mps 724 mmHg 32%
    02:00 +27°C° 0 mm 3 mps 724 mmHg 32%
    03:00 +26°C° 0 mm 2 mps 724 mmHg 32%
    04:00 +27°C° 0 mm 2 mps 724 mmHg 33%
    05:00 +27°C° 0 mm 2 mps 724 mmHg 34%
    06:00 +27°C° 0 mm 2 mps 725 mmHg 35%
    07:00 +29°C° 0 mm 3 mps 725 mmHg 33%
    08:00 +31°C° 0 mm 3 mps 725 mmHg 30%
    09:00 +34°C° 0 mm 3 mps 725 mmHg 28%
    10:00 +35°C° 0 mm 4 mps 725 mmHg 26%
    11:00 +36°C° 0 mm 4 mps 725 mmHg 25%
    12:00 +39°C° 0 mm 5 mps 724 mmHg 23%
    13:00 +39°C° 0 mm 5 mps 724 mmHg 24%
    14:00 +39°C° 0 mm 5 mps 724 mmHg 24%
    15:00 +40°C° 0 mm 5 mps 723 mmHg 24%
    16:00 +39°C° 0 mm 5 mps 723 mmHg 26%
    17:00 +39°C° 0 mm 5 mps 723 mmHg 28%
    18:00 +37°C° 0 mm 4 mps 723 mmHg 30%
    19:00 +35°C° 0 mm 4 mps 723 mmHg 33%
    20:00 +33°C° 0 mm 4 mps 723 mmHg 35%
    21:00 +30°C° 0 mm 4 mps 723 mmHg 37%
    22:00 +29°C° 0 mm 3 mps 723 mmHg 38%
    23:00 +29°C° 0 mm 3 mps 723 mmHg 39%

    Tomorrow, 23 July, Sunday

    Time Temperature Precipitation Wind Pressure Humidity
    00:00 +28°C° 0 mm 2 mps 723 mmHg 40%
    01:00 +27°C° 0 mm 2 mps 723 mmHg 41%
    02:00 +27°C° 0 mm 1 mps 723 mmHg 42%
    03:00 +26°C° 0 mm 1 mps 723 mmHg 42%
    04:00 +27°C° 0 mm 2 mps 723 mmHg 42%
    05:00 +27°C° 0 mm 2 mps 723 mmHg 42%
    06:00 +27°C° 0 mm 2 mps 723 mmHg 42%
    07:00 +29°C° 0 mm 2 mps 722 mmHg 38%
    08:00 +30°C° 0 mm 3 mps 722 mmHg 34%
    09:00 +33°C° 0 mm 3 mps 722 mmHg 30%
    10:00 +34°C° 0 mm 3 mps 721 mmHg 28%
    11:00 +35°C° 0 mm 2 mps 721 mmHg 26%
    12:00 +36°C° 0 mm 2 mps 721 mmHg 25%
    13:00 +37°C° 0 mm 2 mps 720 mmHg 24%
    14:00 +37°C° 0 mm 2 mps 720 mmHg 24%
    15:00 +38°C° 0 mm 2 mps 720 mmHg 23%
    16:00 +38°C° 0 mm 2 mps 720 mmHg 25%
    17:00 +37°C° 0 mm 2 mps 720 mmHg 26%
    18:00 +37°C° 0 mm 2 mps 720 mmHg 27%
    19:00 +35°C° 0.1 mm 2 mps 720 mmHg 29%
    20:00 +32°C° 0.1 mm 2 mps 721 mmHg 30%
    21:00 +31°C° 0.1 mm 2 mps 721 mmHg 32%
    22:00 +30°C° 0 mm 1 mps 722 mmHg 35%
    23:00 +29°C° 0 mm 1 mps 722 mmHg 38%

    Day after tomorrow, 24 July, Monday

    Time Temperature Precipitation Wind Pressure Humidity
    00:00 +28°C° 0 mm 1 mps 722 mmHg 41%
    01:00 +27°C° 0 mm 1 mps 722 mmHg 44%
    02:00 +27°C° 0 mm 1 mps 722 mmHg 47%
    03:00 +26°C° 0 mm 2 mps 722 mmHg 49%
    04:00 +26°C° 0 mm 2 mps 722 mmHg 50%
    05:00 +26°C° 0 mm 2 mps 722 mmHg 51%
    06:00 +26°C° 0 mm 2 mps 722 mmHg 52%
    07:00 +28°C° 0 mm 2 mps 722 mmHg 47%
    08:00 +30°C° 0 mm 2 mps 722 mmHg 42%
    09:00 +31°C° 0 mm 2 mps 722 mmHg 37%
    10:00 +34°C° 0 mm 3 mps 722 mmHg 35%
    11:00 +35°C° 0 mm 4 mps 721 mmHg 32%
    12:00 +36°C° 0 mm 5 mps 721 mmHg 30%
    13:00 +38°C° 0 mm 6 mps 721 mmHg 30%
    14:00 +38°C° 0 mm 6 mps 720 mmHg 30%
    15:00 +39°C° 0 mm 7 mps 720 mmHg 30%
    16:00 +38°C° 0 mm 6 mps 720 mmHg 32%
    17:00 +38°C° 0 mm 6 mps 720 mmHg 34%
    18:00 +36°C° 0 mm 6 mps 720 mmHg 36%
    19:00 +34°C° 0 mm 6 mps 720 mmHg 39%
    20:00 +32°C° 0 mm 5 mps 721 mmHg 43%
    21:00 +30°C° 0 mm 5 mps 721 mmHg 47%
    22:00 +29°C° 0 mm 4 mps 721 mmHg 49%
    23:00 +28°C° 0 mm 4 mps 721 mmHg 51%

    25 July, Tuesday

    Time Temperature Precipitation Wind Pressure Humidity
    00:00 +27°C° 0 mm 3 mps 721 mmHg 53%
    01:00 +26°C° 0 mm 3 mps 721 mmHg 54%
    02:00 +26°C° 0 mm 2 mps 721 mmHg 55%
    03:00 +25°C° 0 mm 2 mps 721 mmHg 57%
    04:00 +25°C° 0 mm 2 mps 721 mmHg 55%
    05:00 +26°C° 0 mm 1 mps 721 mmHg 54%
    06:00 +26°C° 0 mm 1 mps 721 mmHg 53%
    07:00 +27°C° 0 mm 1 mps 721 mmHg 49%
    08:00 +29°C° 0 mm 2 mps 721 mmHg 45%
    09:00 +30°C° 0 mm 2 mps 720 mmHg 41%
    10:00 +32°C° 0 mm 2 mps 720 mmHg 39%
    11:00 +34°C° 0 mm 2 mps 719 mmHg 36%
    12:00 +35°C° 0 mm 2 mps 719 mmHg 34%
    13:00 +36°C° 0 mm 2 mps 719 mmHg 33%
    14:00 +36°C° 0 mm 2 mps 718 mmHg 32%
    15:00 +37°C° 0 mm 2 mps 718 mmHg 31%
    16:00 +37°C° 0.1 mm 2 mps 718 mmHg 32%
    17:00 +36°C° 0.1 mm 2 mps 718 mmHg 34%
    18:00 +36°C° 0.1 mm 2 mps 718 mmHg 35%
    19:00 +34°C° 0.1 mm 2 mps 719 mmHg 38%
    20:00 +32°C° 0.1 mm 2 mps 719 mmHg 41%
    21:00 +30°C° 0.1 mm 2 mps 720 mmHg 44%
    22:00 +29°C° 0.1 mm 2 mps 720 mmHg 45%
    23:00 +28°C° 0.1 mm 2 mps 720 mmHg 47%

    26 July, Wednesday

    Time Temperature Precipitation Wind Pressure Humidity
    00:00 +27°C° 0.1 mm 2 mps 720 mmHg 49%
    01:00 +27°C° 0 mm 2 mps 720 mmHg 49%
    02:00 +27°C° 0 mm 2 mps 720 mmHg 50%
    03:00 +26°C° 0 mm 2 mps 720 mmHg 50%
    04:00 +27°C° 0 mm 2 mps 720 mmHg 49%
    05:00 +27°C° 0 mm 2 mps 720 mmHg 48%
    06:00 +27°C° 0 mm 3 mps 720 mmHg 47%
    07:00 +29°C° 0 mm 3 mps 720 mmHg 42%
    08:00 +31°C° 0 mm 3 mps 720 mmHg 37%
    09:00 +34°C° 0 mm 3 mps 720 mmHg 32%
    10:00 +35°C° 0 mm 3 mps 720 mmHg 31%
    11:00 +36°C° 0 mm 2 mps 720 mmHg 29%
    12:00 +37°C° 0 mm 2 mps 719 mmHg 28%
    13:00 +38°C° 0.1 mm 2 mps 719 mmHg 27%
    14:00 +38°C° 0.1 mm 2 mps 719 mmHg 27%
    15:00 +39°C° 0.1 mm 2 mps 719 mmHg 26%
    16:00 +37°C° 0.1 mm 1 mps 719 mmHg 28%
    17:00 +37°C° 0.1 mm 1 mps 719 mmHg 30%
    18:00 +37°C° 0.1 mm 1 mps 720 mmHg 31%
    19:00 +36°C° 0 mm 2 mps 720 mmHg 34%
    20:00 +34°C° 0 mm 2 mps 721 mmHg 37%
    21:00 +31°C° 0 mm 2 mps 721 mmHg 41%
    22:00 +30°C° 0 mm 2 mps 721 mmHg 43%
    23:00 +29°C° 0 mm 2 mps 721 mmHg 45%

    27 July, Thursday

    Time Temperature Precipitation Wind Pressure Humidity
    00:00 +28°C° 0 mm 2 mps 722 mmHg 47%
    01:00 +28°C° 0 mm 2 mps 722 mmHg 47%
    02:00 +28°C° 0 mm 1 mps 722 mmHg 47%
    03:00 +27°C° 0 mm 1 mps 722 mmHg 48%
    04:00 +27°C° 0 mm 2 mps 722 mmHg 47%
    05:00 +28°C° 0 mm 2 mps 722 mmHg 46%
    06:00 +28°C° 0 mm 2 mps 723 mmHg 45%
    07:00 +30°C° 0 mm 2 mps 723 mmHg 40%
    08:00 +32°C° 0 mm 2 mps 723 mmHg 36%
    09:00 +34°C° 0 mm 2 mps 723 mmHg 32%
    10:00 +35°C° 0 mm 2 mps 722 mmHg 30%
    11:00 +37°C° 0 mm 2 mps 722 mmHg 28%
    12:00 +38°C° 0 mm 2 mps 722 mmHg 27%
    13:00 +38°C° 0.1 mm 2 mps 722 mmHg 27%
    14:00 +39°C° 0.1 mm 2 mps 721 mmHg 27%
    15:00 +39°C° 0.1 mm 2 mps 721 mmHg 26%
    16:00 +39°C° 0.1 mm 3 mps 721 mmHg 28%
    17:00 +39°C° 0.1 mm 3 mps 721 mmHg 29%
    18:00 +38°C° 0.1 mm 3 mps 721 mmHg 31%
    19:00 +37°C° 0 mm 3 mps 722 mmHg 33%
    20:00 +35°C° 0 mm 4 mps 722 mmHg 36%
    21:00 +33°C° 0 mm 4 mps 723 mmHg 39%
    22:00 +32°C° 0 mm 4 mps 723 mmHg 41%
    23:00 +30°C° 0 mm 4 mps 723 mmHg 43%
    Show more